Location: Axtheid
(49.6213°N, 11.8205°E)
Time: 08:34:40
(UTC+00:00)

Cosmos 1844 - Visible Passes

Search period start: 11 May 2021 00:00
Search period end: 21 May 2021 00:00
Orbit: 823 x 867 km, 70.9° (Epoch: 10 May)

Date Brightness Start Highest point End Pass type
(mag) Time Alt. Az. Time Alt. Az. Time Alt. Az.
11 May 6.6 02:31:02 10° N 02:35:07 20° NE 02:39:09 10° E visible
11 May 5.9 20:56:07 10° WSW 21:00:55 27° NW 21:05:42 10° NNE visible
12 May 6.6 02:17:04 10° N 02:21:05 20° NE 02:25:04 10° E visible
12 May 5.9 20:42:04 10° WSW 20:46:54 28° NW 20:51:43 10° NNE visible
12 May 7.2 22:32:54 10° NNW 22:33:08 10° NNW 22:33:24 10° NNW visible
13 May 6.7 02:03:04 10° N 02:07:03 19° NE 02:10:59 10° E visible
13 May 5.9 20:28:00 10° WSW 20:32:52 28° NW 20:37:44 10° NNE visible
13 May 7.2 22:18:30 10° NNW 22:19:05 10° NNW 22:19:41 10° NNW visible
14 May 6.7 01:49:06 10° N 01:53:01 19° NE 01:56:54 10° E visible
14 May 6.0 20:13:56 10° WSW 20:18:51 29° NW 20:23:44 10° NNE visible
14 May 7.3 22:04:14 10° NNW 22:05:03 10° NNW 22:05:51 10° NNW visible
15 May 6.7 01:35:07 10° N 01:38:58 19° NE 01:42:49 10° E visible
15 May 6.0 19:59:54 10° WSW 20:04:50 29° NW 20:09:45 10° NNE visible
15 May 7.3 21:50:01 10° NNW 21:51:00 10° NNW 21:51:59 10° N visible
16 May 6.7 01:21:08 10° N 01:24:57 18° NE 01:28:43 10° ENE visible
16 May 6.0 19:45:50 10° WSW 19:50:48 30° NW 19:55:45 10° NNE visible
16 May 7.3 21:35:49 10° NNW 21:36:57 11° NNW 21:38:05 10° N visible
17 May 6.7 01:07:10 10° N 01:10:54 18° NE 01:14:37 10° ENE visible
17 May 6.0 19:31:47 10° WSW 19:36:46 31° NW 19:41:45 10° NNE visible
17 May 7.3 21:21:37 10° NW 21:22:54 11° NNW 21:24:10 10° N visible
18 May 6.7 00:53:11 10° N 00:56:52 18° NE 01:00:32 10° ENE visible
18 May 4.2 02:36:34 10° NNW 02:42:09 66° ENE 02:47:39 10° SE visible
18 May 7.2 21:07:28 10° NW 21:08:51 11° NNW 21:10:14 10° N visible
19 May 6.6 00:39:11 10° N 00:42:50 17° NE 00:46:26 10° ENE visible
19 May 4.2 02:22:34 10° NNW 02:28:08 64° ENE 02:33:38 10° SE visible
19 May 7.2 20:53:18 10° NW 20:54:48 11° NNW 20:56:18 10° N visible
20 May 6.6 00:25:13 10° N 00:28:47 17° NNE 00:32:20 10° ENE visible
20 May 4.3 02:08:34 10° NNW 02:14:07 62° ENE 02:19:37 10° SE visible
20 May 7.1 20:39:08 10° NW 20:40:45 11° NNW 20:42:21 10° N visible
